Skip Page Navigation
NASA JPL Caltech
NASA Logo - Jet Propulsion Laboratory + View the NASA Portal
+ Center for Near-Earth Object Studies
JPL Home Earth Solar System Stars & Galaxies Technology
JPL Solar System Dynamics
BODIES ORBITS EPHEMERIDES TOOLS PHYSICAL DATA DISCOVERY FAQ SITE MAP
JPL Small-Body Database Browser
Search: [ help ]  
52545 (1996 VW12)
Classification: Main-belt Asteroid          SPK-ID: 2052545
Ephemeris | Orbit Diagram | Orbital Elements | Mission Design | Physical Parameters | Discovery Circumstances | Close-Approach Data ]

[ show orbit diagram ]
Orbital Elements at Epoch 2459396.5 (2021-Jul-01.0) TDB
Reference: JPL 26 (heliocentric ecliptic J2000)
 Element Value Uncertainty (1-sigma)   Units 
e .1623603609089119 3.5183e-08  
a 3.142454056236483 1.8146e-08 au
q 2.632244081526253 1.0756e-07 au
i 5.42630274944286 4.4524e-06 deg
node 46.82651753014748 4.7357e-05 deg
peri 31.12752513446796 4.9914e-05 deg
M 127.4870505319795 1.5645e-05 deg
tp 2458675.947872099436
(2019-Jul-11.44787210)
8.6839e-05 TDB
period 2034.706779722183
5.57
1.7624e-05
4.825e-08
d
yr
n .176929670450675 1.5325e-09 deg/d
Q 3.652664030946712 2.1092e-08 au
  Orbit Determination Parameters
   # obs. used (total)      1034  
   data-arc span      11193 days (30.64 yr)  
   first obs. used      1990-09-25  
   last obs. used      2021-05-18  
   planetary ephem.      DE441  
   SB-pert. ephem.      SB441-N16  
   condition code      0  
   norm. resid. RMS      .51629  
   source      ORB  
   producer      Otto Matic  
   solution date      2021-Jul-08 21:53:55  

Additional Information
 Earth MOID = 1.64929 au 
 Jupiter MOID = 1.63818 au 
 T_jup = 3.183 
[ show covariance matrix ]

Ephemeris | Orbit Diagram | Orbital Elements | Mission Design | Physical Parameters | Discovery Circumstances | Close-Approach Data ]

Physical Parameter Table
Parameter Symbol Value Units Sigma Reference Notes
absolute magnitude H 14.44   n/a E2021B10  
diameter diameter 6.372 km 0.203 urn:nasa:pds:neowise_diameters_albedos::2.0[mainbelt] (http://adsabs.harvard.edu/abs/2011ApJ...741...68M)  
geometric albedo albedo 0.091   0.021 urn:nasa:pds:neowise_diameters_albedos::2.0[mainbelt] (http://adsabs.harvard.edu/abs/2011ApJ...741...68M)  

52545 (1996 VW12)          Discovered 1996-Nov-05 by Spacewatch at Kitt Peak
Reference: 20030216/Numbers.arcLast Updated: 2004-04-19

[ hide close-approach data ]
Close-Approach Data   ...sorted by Date/Time (TDB)
Date/Time (TDB) Time Uncertainty
(days_HH:MM)
Body Nominal Distance (au) Minimum Distance (au) Maximum Distance (au) V-relative (km/s) V-infinity (km/s) JD (TDB) Time Uncertainty (minutes) Semi-major axis (km) Semi-minor axis (km) range-LOV angle (deg) N-sigma BP Orbit Ref. Reference Modified
1951-Jan-02 15:43 00:02 Jupiter 1.94257290500009 1.94257195051933 1.9425738594814 3.61321612347909 3.49045387238632 2433649.154565621 2.0845684113218 87.4285900656999 23.2877483051419 72.0269982627989 2054333.02324679 T 26 CATAB v2.0g-lin.ifort 2021-Jul-08 21:53:57 2021-Jul-08 21:53
1961-Jun-28 14:02 00:02 Jupiter 1.72106218814571 1.72106152459428 1.72106285169715 2.01903188030733 1.75846174083692 2437479.084698744 1.82154068285774 78.0473982193184 24.1486354465656 -85.2592161688614 1742834.77847785 T 26 CATAB v2.0g-lin.ifort 2021-Jul-08 21:53:57 2021-Jul-08 21:53
1971-Dec-28 13:10 00:01 Jupiter 1.70318576791804 1.70318539737541 1.70318613846076 1.88581483715085 1.60052005668469 2441314.048687611 1.37568833838638 82.1830343187991 24.1090751981722 78.2576146923998 2563915.67506687 T 26 CATAB v2.0g-lin.ifort 2021-Jul-08 21:53:57 2021-Jul-08 21:53
1982-Jul-16 07:29 < 00:01 Jupiter 1.92854075963026 1.92854019235131 1.92854132690953 2.67875014326704 2.50944110231836 2445166.811672729 0.988508530949938 74.4401827356548 12.6161309733254 80.0089346600706 2638691.65919266 T 26 CATAB v2.0g-lin.ifort 2021-Jul-08 21:53:57 2021-Jul-08 21:53
2056-Nov-17 09:34 00:01 Jupiter 1.76270722470116 1.76270672233366 1.76270772706856 2.35274997357664 2.13878122684617 2472319.898631868 1.18784514392992 60.9961346022882 11.2889232883434 89.6886511844396 2168227.41713118 T 26 CATAB v2.0g-lin.ifort 2021-Jul-08 21:53:57 2021-Jul-08 21:53
2067-May-12 01:12 00:02 Jupiter 1.6769727496701 1.67697228616395 1.67697321317586 1.74382663892586 1.42504418709488 2476147.550114061 1.51950765187258 93.6907324567229 31.4132178514364 72.1049572752959 2402965.39961012 T 26 CATAB v2.0g-lin.ifort 2021-Jul-08 21:53:57 2021-Jul-08 21:53
2077-Nov-21 19:41 00:02 Jupiter 1.85367236988624 1.85367143686094 1.85367330291175 2.41204488756049 2.21451454054552 2479994.320255113 1.83127822981325 81.8692505488976 12.8681393752437 77.1541215360979 1794389.49430137 T 26 CATAB v2.0g-lin.ifort 2021-Jul-08 21:53:57 2021-Jul-08 21:53
2152-Apr-05 19:29 00:04 Jupiter 1.80607006354697 1.80606873218019 1.8060713949156 2.78221822314878 2.60821111192639 2507157.311987854 4.1180387983203 137.026709186772 14.4900565620182 83.0303436069836 1650629.36963066 T 26 CATAB v2.0g-lin.ifort 2021-Jul-08 21:53:57 2021-Jul-08 21:53
2162-Sep-25 20:28 00:04 Jupiter 1.66699502500766 1.66699463158692 1.66699541842821 1.70578264957577 1.37603330125611 2510982.352736440 4.46194737220152 208.121894729738 42.6111047792413 -83.6625334317343 2720769.77184799 T 26 CATAB v2.0g-lin.ifort 2021-Jul-08 21:53:57 2021-Jul-08 21:53
2173-Mar-31 06:44 00:05 Jupiter 1.78529736681415 1.78529563907107 1.78529909455501 2.14178801581107 1.90745095645114 2514821.780314763 4.66472175090015 73.9290770365976 10.6224011683392 80.7201394049842 793718.587554631 T 26 CATAB v2.0g-lin.ifort 2021-Jul-08 21:53:57 2021-Jul-08 21:53

Alternate Designations
 1996 VW12 = 1990 SP25 
Ephemeris | Orbit Diagram | Orbital Elements | Mission Design | Physical Parameters | Discovery Circumstances | Close-Approach Data ]
ABOUT SSD CREDITS/AWARDS PRIVACY/COPYRIGHT GLOSSARY LINKS
FirstGov 2021-Jul-23 15:59 UT
(server date/time)  
NASA Home Page
Site Manager:   Ryan S. Park
Webmaster  Alan B. Chamberlin